Miscellaneous Local Product
Issued by NWS North Platte, NE

Home | Current Version | Previous Version | Graphics & Text | Print | Product List | Glossary On
Versions: 1 2 3 4 5 6 7 8 9 10 11 12 13 14 15 16 17 18 19 20 21 22 23 24 25 26 27 28 29 30 31 32 33 34 35 36 37 38 39 40 41 42 43 44 45 46 47 48 49 50
000
AXUS43 KLBF 260610
MISLBF


WESTERN AND NORTH CENTRAL NEBRASKA HOURLY WEATHER ROUNDUP
NATIONAL WEATHER SERVICE NORTH PLATTE NE
100 AM CDT THU MAY 26 2016

NOTE: "FAIR" INDICATES FEW OR NO CLOUDS BELOW 12,000 FEET WITH NO
SIGNIFICANT WEATHER AND/OR OBSTRUCTIONS TO VISIBILITY.

NOTE: STATIONS NOT REPORTING VARIABLES SUCH AS SKY/WEATHER OR
PRESSURE ARE PROVIDED BY RAWS AND APRS NETWORKS AND ARE NOT UNDER
NATIONAL WEATHER SERVICE QUALITY CONTROL.

...OBSERVATIONS IN AND NEAR THE EASTERN PANHANDLE OF NEBRASKA...

CITY           SKY/WX    TMP DP  RH WIND       PRES   REMARKS
PINE RIDGE     CLOUDY    44  39  82 CALM      29.92R
CHADRON        CLOUDY    45  42  89 W7        29.92S
ALLIANCE       CLOUDY    50  45  83 NE3       29.93F
SIDNEY         CLEAR     45  42  89 W5        29.97F
CRESCENT LAKE    N/A     58  30  34 S8G26       N/A
BIG SPRINGS      N/A     54  51  90 NW3         N/A
$$

...OBSERVATIONS IN NORTHERN NEBRASKA AND FAR SOUTHERN SOUTH DAKOTA...

CITY           SKY/WX    TMP DP  RH WIND       PRES   REMARKS
WINNER         FAIR      58  51  78 CALM      29.87S
VALENTINE      CLOUDY    51  47  86 SE9       29.91S
THEDFORD       PTCLDY    54  46  76 NW3       29.94S
AINSWORTH      CLOUDY    53  48  85 S3        29.92F
O`NEILL        MOCLDY    60  52  76 SW5       29.90R
ORD            MOCLDY    58  54  86 N3        29.88R
BROKEN BOW     CLOUDY    57  52  83 CALM      29.90F
BUTTE            N/A     59  52  78 W6          N/A
CHAMBERS         N/A     60  55  83 W3          N/A
EWING            N/A     63  55  74 SW3         N/A
$$

...OBSERVATIONS IN SOUTHWEST NEBRASKA AND FAR NORTHEAST COLORADO...

CITY           SKY/WX    TMP DP  RH WIND       PRES   REMARKS
WRAY           FAIR      52  45  76 NE3       29.94F
IMPERIAL       CLEAR     53  49  86 N6        29.93S
OGALLALA       PTCLDY    52  48  89 CALM      29.94F
NORTH PLATTE   CLOUDY    55  52  89 W5        29.93S
MCCOOK         CLEAR     57  49  74 NE5       29.88R
LEXINGTON      PTCLDY    62  49  63 S3        29.87F
PAXTON           N/A     54  50  87 CALM        N/A
STAPLETON        N/A     54  50  87 CALM        N/A
GOTHENBURG       N/A     61  49  63 E3          N/A
CALLAWAY         N/A     55  52  90 NW3         N/A
$$

...OBSERVATIONS IN CENTRAL LINCOLN COUNTY AREA...

CITY           SKY/WX    TMP DP  RH WIND       PRES   REMARKS
N.P. AIRPORT   CLOUDY    55  52  89 W5        29.93S
N.P. DOWNTOWN    N/A     57  53  88 CALM        N/A
N.P. HILLCREST   N/A     57  52  83 CALM        N/A
$$

...SOME OBSERVATIONS FROM AROUND THE REGION...

CITY           SKY/WX    TMP DP  RH WIND       PRES   REMARKS
DENVER         CLOUDY    51  42  71 N9        30.03R
LARAMIE        CLEAR     41  31  67 NE7       30.09S
CHEYENNE       CLEAR     43  35  73 W8        30.04S
SCOTTSBLUFF    CLOUDY    49  44  83 N7        29.95F
RAPID CITY     CLOUDY    51  46  83 W5        29.90R
BISMARCK       CLEAR     51  49  92 SW5       29.79F
PIERRE         CLEAR     54  48  80 CALM      29.85R
SIOUX FALLS    CLOUDY    61  55  81 SE5       29.81R
OMAHA          CLOUDY    71  66  84 CALM      29.82F THUNDER
GRAND ISLAND   CLOUDY    60  54  80 S9        29.88R
KANSAS CITY    LGT RAIN  76  70  82 S24       29.84F
WICHITA        PTCLDY    76  72  87 S9        29.84R
OKLAHOMA CITY  CLOUDY    76  74  93 S13       29.88F
DALLAS         MOCLDY    80  73  79 S14       29.92F
AMARILLO       CLEAR     66  30  26 SW8       29.90F
DODGE CITY     CLEAR     65  62  90 E12       29.85S
HAYS           CLEAR     54  48  82 NE12      29.91S
GOODLAND       CLEAR     51  47  86 E8        29.93R
$$




USA.gov is the U.S. government's official web portal to all federal, state and local government web resources and services.